Location: Newark
(47.5989°N, 4.6950°E)
Time: 07:33:12
(UTC+00:00)

Envisat - Pass Details

Date: 20 November 2019
Orbit: 764 x 766 km, 98.1° (Epoch: 15 December)

Event Time Altitude Azimuth Distance (km) Brightness Sun altitude
Rises 05:21:48 0° 27° (NNE) 3,243 6.4 -15.2°
Reaches altitude 10° 05:24:51 10° 46° (NE) 2,310 5.9 -14.7°
Maximum altitude 05:28:19 18° 89° (E) 1,797 6.0 -14.1°
Drops below altitude 10° 05:31:47 10° 133° (SE) 2,298 6.5 -13.5°
Sets 05:34:47 0° 152° (SSE) 3,218 6.9 -13.0°
